Location: Okie-Tex Star Party
(36.8978°N, 102.9520°W)
Time: 13:51:13
(UTC-05:00)

Daily predictions for brighter satellites

Satellite Brightness Start Highest point End
(mag) Time Altitude Azimuth Time Altitude Azimuth Time Altitude Azimuth
NOSS 5 (C) 4.4 21:23:03 10° SSW 21:26:40 87° WNW 21:29:48 10° NNE
USA 215 4.2 21:20:55 10° SSE 21:27:06 45° SW 21:33:20 10° WNW
Cosmos 1782 3.0 21:27:25 10° N 21:31:25 57° E 21:35:23 10° SSE
Meteor 2-10 Rocket 3.9 21:26:57 10° NNW 21:32:44 79° W 21:38:17 10° S
Cosmos 1825 3.0 21:34:01 10° SSE 21:37:23 30° E 21:40:47 10° NNE
SEDSat Delta rocket 4.0 21:33:33 10° SW 21:37:37 30° SSE 21:41:20 10° ESE
Envisat 4.0 21:35:35 10° SE 21:39:54 29° ENE 21:44:13 10° N
Cosmos 2341 Rocket 4.5 21:34:55 10° SSE 21:40:42 40° E 21:46:29 10° NNE
Cosmos 1844 Rocket 3.5 21:36:50 10° SW 21:42:23 58° WNW 21:47:58 10° NNE
deb Chang Zheng 4 4.5 21:39:20 10° NE 21:43:14 29° E 21:47:06 10° SSE
FENGYUN 3A 3.9 21:38:47 10° S 21:44:09 74° WSW 21:49:33 10° NNW
ISS -1.1 21:42:49 10° W 21:45:41 28° NNW 21:48:35 10° NNE
Meteor 2-6 Rocket 4.3 21:40:25 10° N 21:46:22 82° E 21:52:07 10° S
Cosmos 2278 Rocket 2.2 21:41:42 10° SSW 21:47:21 73° ESE 21:53:00 10° NNE
ERS-1 Rocket 3.2 21:43:48 10° SSE 21:48:40 52° ENE 21:53:33 10° N
Atlas Centaur 2 2.8 21:47:09 10° WSW 21:49:56 20° SSW 21:52:19 11° SSE
H-2A R/B 3.1 21:46:49 12° SE 21:50:09 29° ENE 21:53:48 10° N
COSMOS 2406 4.3 21:45:57 10° NW 21:51:21 44° WSW 21:56:42 10° S
Cosmos 1420 Rocket 4.2 21:46:48 10° S 21:51:49 48° ESE 21:56:49 10° NNE
Abrixas 2.7 21:50:46 10° SW 21:53:42 46° SE 21:56:38 10° ENE
Cosmos 1939 Rocket 3.4 21:50:56 12° SE 21:54:10 38° ENE 21:57:50 10° N
Cosmos 1844 4.3 21:48:29 10° SSW 21:54:12 64° WNW 21:59:58 10° NNE
Okean 3 4.1 21:51:35 10° N 21:55:34 38° E 21:58:46 14° SE
Cosmos 1140 Rocket 4.0 21:51:58 10° N 21:56:50 41° ENE 22:00:43 15° SE
APEX 3.6 21:53:33 10° S 21:57:12 49° ESE 22:01:56 10° NNE
COSMOS 2487 2.8 21:53:53 10° N 21:57:25 50° ENE 22:00:04 16° SE
Cosmos 407 Rocket 3.9 21:54:14 10° NNW 21:59:29 67° WSW 22:04:45 10° S
Timation 2 Rocket 4.4 21:53:59 10° N 21:59:39 42° ENE 22:04:04 16° SE
YAOGAN 11 4.2 21:55:18 10° SSE 21:59:49 83° ENE 22:04:24 10° N
Cosmos 2154 Rocket 3.9 21:56:09 10° S 22:02:22 80° E 22:08:34 10° N
Cosmos 1238 Rocket 3.0 21:59:18 10° N 22:02:45 48° E 22:06:08 14° SSE
SPOT 5 3.8 22:02:47 16° SE 22:06:32 38° ENE 22:11:26 10° N
Cosmos 2082 Rocket 3.3 22:04:35 10° N 22:09:33 30° ENE 22:12:49 18° ESE
Cosmos 1184 Rocket 2.7 22:07:25 10° S 22:10:43 80° E 22:14:04 10° N
Cosmos 1452 Rocket 4.4 22:08:03 10° SW 22:13:10 53° WNW 22:18:21 10° N
Lacrosse 5 2.9 22:11:57 10° S 22:15:51 23° ESE 22:19:47 10° ENE
H-2A R/B 4.0 22:20:50 12° E 22:22:36 14° ENE 22:25:10 10° NNE
Cosmos 2297 3.6 22:20:26 10° SSW 22:26:06 77° ESE 22:31:51 10° NNE
MetOp-B 4.5 22:25:01 24° SE 22:28:01 49° ENE 22:33:09 10° N
Okean 2 Rocket 3.0 22:24:54 10° S 22:29:18 89° ESE 22:33:44 10° N
Cosmos 1606 4.0 22:26:53 10° NNW 22:30:35 40° W 22:34:15 10° SSW
Meteor 1-14 Rocket 4.3 22:26:18 14° S 22:31:01 56° E 22:36:28 10° NNE
Cosmos 1782 Rocket 4.0 22:29:32 10° SSW 22:33:58 65° W 22:38:25 10° N
Meteor 2-13 Rocket 4.4 22:28:41 10° S 22:34:50 85° E 22:41:02 10° N
Cosmos 1242 Rocket 2.5 22:33:55 10° N 22:37:37 86° E 22:38:59 37° SSE
SPOT 1/Viking Rocket 4.1 22:35:56 28° ESE 22:37:57 41° ENE 22:42:49 10° N
Intercosmos 25 2.8 22:37:35 28° S 22:39:17 83° E 22:42:26 10° N
COS B Rocket 4.1 22:38:00 10° NNW 22:41:39 43° W 22:44:15 15° SSW
YAOGAN 6 2.5 22:45:16 54° ESE 22:45:39 58° ENE 22:49:07 10° N
GPS 2-05 Rocket1 2.9 22:42:51 10° W 22:46:33 64° S 22:46:55 59° SSE
Cosmos 1850 Rocket 4.0 22:41:47 10° NNW 22:47:09 89° WSW 22:49:45 32° SSE
PSLV R/B 3.0 22:48:39 73° NE 22:48:39 73° NE 22:51:27 10° N
Lacrosse 5 rocket 1.1 22:44:46 10° SSW 22:48:42 59° SE 22:52:28 10° NE
NOSS 8 (E) 4.5 22:45:19 10° SW 22:48:47 80° WNW 22:52:22 10° NNE
Cosmos 1975 Rocket 3.6 22:46:32 10° NNW 22:50:46 55° W 22:53:20 23° SSW
USA 229 DEB 3.9 22:43:58 10° NNW 22:51:00 62° NE 22:54:27 32° ESE
USA 229 4.0 22:44:04 10° NNW 22:51:07 61° NE 22:54:33 32° ESE
OAO 3 Rocket 3.2 22:46:45 10° WSW 22:51:41 68° S 22:53:20 41° ESE
ARGOS 3.5 22:50:37 36° ESE 22:52:21 49° ENE 22:57:30 10° N
Cosmos 2369 Rocket 4.2 22:55:52 12° ENE 22:55:52 12° ENE 22:56:31 10° ENE
SL-08 RB Rocket 4.3 22:53:47 37° E 22:54:30 40° ENE 22:58:51 10° N
CZ-4 SHROUD 3.2 22:56:08 79° NNW 22:56:08 79° NNW 22:59:04 10° NNW
AVUM R/B 4.1 22:54:22 10° N 22:57:23 40° NE 22:57:23 40° NE
Cosmos 2218 Rocket 4.0 22:52:54 18° S 22:57:46 84° E 23:04:12 10° N
CZ-4 R/B 4.0 22:54:34 10° NNE 22:59:04 47° E 22:59:17 47° ESE
DNEPR-1 R/B 4.2 22:54:12 10° NW 22:59:09 54° WSW 23:00:37 37° S
Cosmos 1536 Rocket 3.6 22:59:23 10° N 23:03:49 59° E 23:04:13 56° ESE
Meteor 2-8 Rocket 4.5 22:58:45 10° N 23:04:51 61° E 23:06:48 42° SE
Cosmos 1959 Rocket 4.4 23:01:23 20° S 23:05:51 84° W 23:11:59 10° N
Landsat 7 4.4 23:07:13 38° E 23:07:31 38° ENE 23:11:55 10° N
Cosmos 1331 Rocket 3.9 23:07:15 49° SSE 23:08:28 65° ESE 23:13:34 10° NNE
Cosmos 1741 Rocket 4.4 23:04:15 10° NNW 23:09:21 56° WSW 23:11:26 34° SSW
CZ-4C R/B 4.4 23:11:59 33° NE 23:11:59 33° NE 23:15:14 10° N
Cosmos 1727 Rocket 3.9 23:07:06 10° N 23:13:17 72° E 23:15:12 46° SSE
OAO 1 Rocket 4.3 23:12:17 10° W 23:17:35 74° S 23:18:19 63° SE
Cosmos 1110 Rocket 3.9 23:15:52 35° SSW 23:18:07 88° WNW 23:23:22 10° NNE
Meteor 1-20 Rocket 4.0 23:21:30 51° S 23:22:59 83° E 23:28:32 10° N
Terra 2.6 23:23:26 38° ENE 23:23:26 38° ENE 23:27:37 10° N
SEDSat Delta rocket 4.4 23:19:18 10° WSW 23:21:32 26° SW 23:21:32 26° SW
USA 245 3.6 23:23:59 57° W 23:23:59 57° W 23:27:57 10° NNW
Cosmos 1833 Rocket 2.6 23:20:01 10° NNW 23:25:39 80° WSW 23:26:48 57° S
H-2A R/B 4.2 23:23:58 14° SW 23:26:09 20° W 23:29:19 10° NW
Cosmos 1339 Rocket 4.4 23:27:01 10° N 23:33:14 86° E 23:34:38 57° SSE
DMSP B5D2-2 4.3 23:29:31 10° NNE 23:34:07 53° ENE 23:34:07 53° ENE
NOSS 3-1 (C) 4.4 23:30:23 10° NNW 23:37:49 52° NE 23:40:23 39° E
Cosmos 1300 Rocket 3.8 23:41:49 66° N 23:41:49 66° N 23:45:40 10° N
Cosmos 1821 Rocket 4.3 23:42:00 46° E 23:42:00 46° E 23:47:42 10° NNE
Spot 4 4.5 23:45:42 45° NE 23:45:42 45° NE 23:49:43 10° N
USA 234 3.6 23:40:24 10° NE 23:45:22 45° E 23:45:22 45° E
Okean 1 4.2 23:43:19 10° N 23:46:23 49° NNW 23:46:23 49° NNW
Cosmos 1486 Rocket 4.0 23:44:34 10° NNW 23:49:39 71° NE 23:49:39 71° NE
Okean 1 Rocket 3.6 23:51:03 58° NNW 23:51:03 58° NNW 23:54:43 10° N
Cosmos 1812 4.0 23:47:37 10° NNW 23:50:22 39° NW 23:50:22 39° NW
Cosmos 2082 Rocket 3.3 23:48:32 10° NW 23:53:37 34° WSW 23:54:41 32° SW
